Hourly Data Report for June 02, 2020

BORDEN AWOS
ONTARIO
Current Station Operator: DND

44°16'20.000" N
79°54'42.000" W
222.50 m
611B002
71534
YBN

Download Data

Hourly Data (June 2020)
Hourly Data Report for June 2, 2020
TIME
LST
Temp Definition
°C
Dew Point Definition
°C
Rel Hum Definition
%
Precip. Amount Definition
mm

Wind Dir Definition
10's deg

Wind Spd Definition
km/h
Visibility Definition
km
Stn Press Definition
kPa
Hmdx Definition


Wind Chill Definition


Weather Definition


00:00 14.6 6.4 58   18 6 14.5 98.97     LegendNANA
01:00 15.7 6.2 53   24 9 14.5 98.94     LegendNANA
02:00 16.2 7.8 58   24 15 14.5 98.90     Rain
03:00 14.9 9.1 68   25 15 14.5 98.89     Rain
04:00 12.5 11.7 95   22 6 8.0 98.89     Rain
05:00 12.7 12.0 96   13 11 14.5 98.74     Rain
06:00 13.0 12.0 94   16 11 14.5 98.67     LegendNANA
07:00 13.2 12.1 93   14 11 14.5 98.65     LegendNANA
08:00 13.5 12.3 92   16 13 14.5 98.61     LegendNANA
09:00 15.1 13.0 87   15 11 14.5 98.53     LegendNANA
10:00 18.4 13.1 71   20 13 14.5 98.42     LegendNANA
11:00 19.8 12.5 63   23 15 14.5 98.38     LegendNANA
12:00 21.7 13.4 59   25 13 14.5 98.25 25   LegendNANA
13:00 21.9 13.9 60   23 9 14.5 98.17 25   LegendNANA
14:00 24.0 15.4 59   25 6 14.5 98.11 28   LegendNANA
15:00 25.2 16.1 57   23 13 14.5 98.04 30   LegendNANA
16:00 27.2 16.9 53   30 9 14.5 97.98 32   LegendNANA
17:00 26.0 17.4 59   30 7 14.5 97.96 32   LegendNANA
18:00 23.4 15.9 63   34 11 14.5 97.98 28   LegendNANA
19:00 21.7 15.2 67   1 7 14.5 97.94 26   LegendNANA
20:00 18.4 16.9 91   5 6 14.5 97.92     LegendNANA
21:00 18.1 17.2 95   26 7 9.7 97.94     Moderate Rain
22:00 16.8 16.4 98     0 14.5 97.85     LegendNANA
23:00                      

Notes on Data Quality.

Legend

  • E = Estimated
  • M = Missing
  • NA = Not Available*
  • [empty] = Indicates an unobserved value
Date modified: